Weather Roundup
Issued by NWS Springfield, MO

Home | Current Version | Previous Version | Text Only | Print | Product List | Glossary On
Versions: 1 2 3 4 5 6 7 8 9 10 11 12 13 14 15 16 17 18 19 20 21 22 23 24 25 26 27 28 29 30 31 32 33 34 35 36 37 38 39 40 41 42 43 44 45 46 47 48 49 50
000
NZUS99 KSGF 211707
HRRSGF

HOURLY WEATHER
NATIONAL WEATHER SERVICE SPRINGFIELD MO
1200 PM CDT TUE OCT 21 2014

......SGF CWA......

CITY           SKY/WX    TMP DP  RH WIND       PRES   REMARKS
SPRINGFIELD    SUNNY     70  43  37 CALM      30.14S
JOPLIN         SUNNY     70  58  65 CALM      30.14F
WEST PLAINS    SUNNY     68  45  43 CALM      30.15S
ROLLA          SUNNY     66  45  46 NW6       30.13S
OSAGE BEACH    SUNNY     66  46  48 SW5       30.15S
BRANSON        SUNNY     73  59  60 CALM      30.16S

......SURROUNDING SGF CWA......

CITY           SKY/WX    TMP DP  RH WIND       PRES   REMARKS
CHANUTE        SUNNY     71  57  61 SE7       30.13S
PARSONS        SUNNY     71  61  70 VRB6      30.14F
COFFEYVILLE    SUNNY     71  61  70 S6        30.12F
EMPORIA        SUNNY     71  54  54 S7        30.13S
GROVE OK       SUNNY     72  63  73 CALM      30.14F
ROGERS AR      SUNNY     66  60  81 CALM      30.16F
SILOAM SPRINGS SUNNY     66  55  68 S5        30.16S
HARRISON AR    SUNNY     70  51  51 CALM      30.15S
NEAR YELLVILLE SUNNY     59  54  82 CALM      30.15F

......KANSAS AND MISSOURI......

CITY           SKY/WX    TMP DP  RH WIND       PRES   REMARKS
KANSAS CTY INT SUNNY     67  47  48 CALM      30.14F
DOWNTOWN KC    SUNNY     67  46  47 CALM      30.14S
COLUMBIA       SUNNY     69  45  41 N8        30.14R
SEDALIA        SUNNY     70  43  37 W3        30.15S
ST JOSEPH      SUNNY     67  32  27 CALM      30.14S
ST LOUIS       SUNNY     63  46  54 VRB6      30.15R
SPIRIT OF STL  SUNNY     63  48  58 N8        30.14S
KIRKSVILLE     SUNNY     61  46  57 E9        30.16S
WICHITA        MOSUNNY   75  53  46 SE15      30.10F
TOPEKA         SUNNY     70  50  49 E3        30.13F
OLATHE         SUNNY     70  47  43 CALM      30.13S

......TENNESSEE......

CITY           SKY/WX    TMP DP  RH WIND       PRES   REMARKS
MEMPHIS        SUNNY     75  46  35 NE10      30.10F
NASHVILLE      MOSUNNY   70  48  45 NW7       30.07F

......ARKANSAS.......

CITY           SKY/WX    TMP DP  RH WIND       PRES   REMARKS
FAYETTEVILLE   SUNNY     70  55  59 CALM      30.15F
FT SMITH       SUNNY     73  60  63 VRB3      30.12F
LITTLE ROCK    SUNNY     74  53  48 CALM      30.12F

......OKLAHOMA.......

CITY           SKY/WX    TMP DP  RH WIND       PRES   REMARKS
TULSA          MOSUNNY   73  62  68 E8        30.11S
PONCA CITY     SUNNY     74  62  66 SE9       30.09F
MCALESTER      PTSUNNY   75  60  59 CALM      30.13S
OKLAHOMA CITY  MOSUNNY   80  58  46 S8        30.10F

......IOWA............

CITY           SKY/WX    TMP DP  RH WIND       PRES   REMARKS
DES MOINES     SUNNY     60  46  59 E7        30.16S
QUAD CITIES    SUNNY     56  40  55 NE8       30.19F

......ILLINOIS........

CITY           SKY/WX    TMP DP  RH WIND       PRES   REMARKS
QUINCY         SUNNY     59  41  51 E9        30.16F
CHICAGO        PTSUNNY   52  40  63 N17       30.17S




USA.gov is the U.S. government's official web portal to all federal, state and local government web resources and services.